Time,TemperatureF,DewpointF,PressureIn,WindDirection,WindDirectionDegrees,WindSpeedMPH,WindSpeedGustMPH,Humidity,HourlyPrecipIn,Conditions,Clouds,dailyrainin,SoftwareType,DateUTC
2013-10-13 00:03:00,62.2,32.8,27.14,East,93,0.0,0.0,33,0.00,,---,0.00,VWS V13.01,2013-10-13 07:03:00,
2013-10-13 00:09:00,62.2,32.8,27.14,East,93,0.0,0.0,33,0.00,,---,0.00,VWS V13.01,2013-10-13 07:09:00,
2013-10-13 00:14:00,62.1,32.6,27.14,East,93,0.0,0.0,33,0.00,,---,0.00,VWS V13.01,2013-10-13 07:14:00,
2013-10-13 00:19:00,61.9,32.5,27.14,East,93,0.0,0.0,33,0.00,,---,0.00,VWS V13.01,2013-10-13 07:19:00,
2013-10-13 00:24:00,61.5,32.2,27.17,East,93,0.0,0.0,33,0.00,,---,0.00,VWS V13.01,2013-10-13 07:24:00,
2013-10-13 00:29:00,61.3,32.0,27.17,East,93,0.0,0.0,33,0.00,,---,0.00,VWS V13.01,2013-10-13 07:29:00,
2013-10-13 00:34:00,61.0,32.4,27.17,East,93,0.0,0.0,34,0.00,,---,0.00,VWS V13.01,2013-10-13 07:34:00,
2013-10-13 00:40:00,60.8,32.3,27.17,East,93,0.0,0.0,34,0.00,,---,0.00,VWS V13.01,2013-10-13 07:40:00,
2013-10-13 00:45:00,60.6,32.1,27.17,East,93,0.0,0.0,34,0.00,,---,0.00,VWS V13.01,2013-10-13 07:45:00,
2013-10-13 00:50:00,60.6,32.1,27.17,East,93,0.0,0.0,34,0.00,,---,0.00,VWS V13.01,2013-10-13 07:50:00,
2013-10-13 00:55:00,60.4,32.0,27.17,East,93,0.0,0.0,34,0.00,,---,0.00,VWS V13.01,2013-10-13 07:55:00,
2013-10-13 01:00:00,60.4,32.0,27.17,East,93,0.0,0.0,34,0.00,,---,0.00,VWS V13.01,2013-10-13 08:00:00,
2013-10-13 01:06:00,60.3,31.8,27.17,East,93,0.0,0.0,34,0.00,,---,0.00,VWS V13.01,2013-10-13 08:06:00,
2013-10-13 01:11:00,59.9,31.5,27.17,East,93,0.0,0.0,34,0.00,,---,0.00,VWS V13.01,2013-10-13 08:11:00,
2013-10-13 01:16:00,59.7,32.0,27.17,East,93,0.0,0.0,35,0.00,,---,0.00,VWS V13.01,2013-10-13 08:16:00,
2013-10-13 01:21:00,59.5,31.9,27.17,East,93,0.0,0.0,35,0.00,,---,0.00,VWS V13.01,2013-10-13 08:21:00,
2013-10-13 01:26:00,59.5,31.9,27.17,East,93,0.0,0.0,35,0.00,,---,0.00,VWS V13.01,2013-10-13 08:26:00,
2013-10-13 01:31:00,59.4,31.7,27.17,East,93,0.0,0.0,35,0.00,,---,0.00,VWS V13.01,2013-10-13 08:31:00,
2013-10-13 01:36:00,59.2,31.6,27.14,East,93,0.0,0.0,35,0.00,,---,0.00,VWS V13.01,2013-10-13 08:36:00,
2013-10-13 01:42:00,59.2,31.6,27.14,East,93,0.0,0.0,35,0.00,,---,0.00,VWS V13.01,2013-10-13 08:42:00,
2013-10-13 01:47:00,59.4,31.7,27.14,East,93,0.0,0.0,35,0.00,,---,0.00,VWS V13.01,2013-10-13 08:47:00,
2013-10-13 01:52:00,59.2,31.6,27.14,East,93,0.0,0.0,35,0.00,,---,0.00,VWS V13.01,2013-10-13 08:52:00,
2013-10-13 01:57:00,59.2,31.6,27.14,East,93,0.0,0.0,35,0.00,,---,0.00,VWS V13.01,2013-10-13 08:57:00,
2013-10-13 02:02:00,59.2,31.6,27.14,East,93,0.0,0.0,35,0.00,,---,0.00,VWS V13.01,2013-10-13 09:02:00,
2013-10-13 02:07:00,59.2,31.6,27.14,East,93,0.0,0.0,35,0.00,,---,0.00,VWS V13.01,2013-10-13 09:07:00,
2013-10-13 02:13:00,59.0,31.4,27.14,East,93,0.0,0.0,35,0.00,,---,0.00,VWS V13.01,2013-10-13 09:13:00,
2013-10-13 02:18:00,59.0,31.4,27.14,East,93,0.0,0.0,35,0.00,,---,0.00,VWS V13.01,2013-10-13 09:18:00,
2013-10-13 02:23:00,59.0,31.4,27.14,East,93,0.0,0.0,35,0.00,,---,0.00,VWS V13.01,2013-10-13 09:23:00,
2013-10-13 02:28:00,58.8,32.0,27.14,East,93,0.0,0.0,36,0.00,,---,0.00,VWS V13.01,2013-10-13 09:28:00,
2013-10-13 02:33:00,58.8,32.0,27.14,East,93,0.0,0.0,36,0.00,,---,0.00,VWS V13.01,2013-10-13 09:33:00,
2013-10-13 02:38:00,58.8,32.0,27.14,East,93,0.0,0.0,36,0.00,,---,0.00,VWS V13.01,2013-10-13 09:38:00,
2013-10-13 02:44:00,58.8,32.0,27.14,East,93,0.0,0.0,36,0.00,,---,0.00,VWS V13.01,2013-10-13 09:44:00,
2013-10-13 02:49:00,59.0,32.1,27.14,East,94,2.7,3.6,36,0.00,,---,0.00,VWS V13.01,2013-10-13 09:49:00,
2013-10-13 02:54:00,59.2,32.3,27.14,East,95,0.0,0.0,36,0.00,,---,0.00,VWS V13.01,2013-10-13 09:54:00,
2013-10-13 02:59:00,59.4,32.4,27.14,East,94,0.0,0.0,36,0.00,,---,0.00,VWS V13.01,2013-10-13 09:59:00,
2013-10-13 03:04:00,59.4,32.4,27.14,East,94,0.0,3.6,36,0.00,,---,0.00,VWS V13.01,2013-10-13 10:04:00,
2013-10-13 03:09:00,59.4,33.1,27.14,East,95,2.2,2.7,37,0.00,,---,0.00,VWS V13.01,2013-10-13 10:09:00,
2013-10-13 03:14:00,59.7,33.4,27.14,East,95,0.0,0.0,37,0.00,,---,0.00,VWS V13.01,2013-10-13 10:14:00,
2013-10-13 03:19:00,59.9,33.6,27.14,East,93,0.0,0.0,37,0.00,,---,0.00,VWS V13.01,2013-10-13 10:19:00,
2013-10-13 03:24:00,60.1,33.8,27.14,ESE,105,3.1,3.6,37,0.00,,---,0.00,VWS V13.01,2013-10-13 10:24:00,
2013-10-13 03:30:00,60.1,33.8,27.14,ESE,105,0.0,3.1,37,0.00,,---,0.00,VWS V13.01,2013-10-13 10:30:00,
2013-10-13 03:35:00,60.1,34.4,27.14,ESE,105,0.0,0.0,38,0.00,,---,0.00,VWS V13.01,2013-10-13 10:35:00,
2013-10-13 03:40:00,60.1,34.4,27.14,ESE,105,0.0,0.0,38,0.00,,---,0.00,VWS V13.01,2013-10-13 10:40:00,
2013-10-13 03:45:00,60.1,34.4,27.14,ESE,105,0.0,0.0,38,0.00,,---,0.00,VWS V13.01,2013-10-13 10:45:00,
2013-10-13 03:50:00,60.1,34.4,27.14,ESE,105,0.0,0.0,38,0.00,,---,0.00,VWS V13.01,2013-10-13 10:50:00,
2013-10-13 03:55:00,60.1,34.4,27.14,ESE,105,0.0,2.7,38,0.00,,---,0.00,VWS V13.01,2013-10-13 10:55:00,
2013-10-13 04:00:00,59.9,34.9,27.14,ESE,105,0.0,0.0,39,0.00,,---,0.00,VWS V13.01,2013-10-13 11:00:00,
2013-10-13 04:06:00,59.9,34.9,27.14,ESE,105,0.0,0.0,39,0.00,,---,0.00,VWS V13.01,2013-10-13 11:06:00,
2013-10-13 04:11:00,59.5,34.6,27.14,ESE,105,0.0,0.0,39,0.00,,---,0.00,VWS V13.01,2013-10-13 11:11:00,
2013-10-13 04:16:00,59.4,34.4,27.14,ESE,105,0.0,0.0,39,0.00,,---,0.00,VWS V13.01,2013-10-13 11:16:00,
2013-10-13 04:21:00,59.0,34.1,27.14,ESE,105,0.0,0.0,39,0.00,,---,0.00,VWS V13.01,2013-10-13 11:21:00,
2013-10-13 04:26:00,58.8,34.6,27.14,ESE,105,0.0,0.0,40,0.00,,---,0.00,VWS V13.01,2013-10-13 11:26:00,
2013-10-13 04:31:00,58.6,35.0,27.14,ESE,105,0.0,0.0,41,0.00,,---,0.00,VWS V13.01,2013-10-13 11:31:00,
2013-10-13 04:36:00,58.5,34.9,27.14,ESE,105,0.0,0.0,41,0.00,,---,0.00,VWS V13.01,2013-10-13 11:36:00,
2013-10-13 04:41:00,58.3,34.7,27.14,ESE,105,0.0,0.0,41,0.00,,---,0.00,VWS V13.01,2013-10-13 11:41:00,
2013-10-13 04:46:00,57.9,35.0,27.14,ESE,105,0.0,0.0,42,0.00,,---,0.00,VWS V13.01,2013-10-13 11:46:00,
2013-10-13 04:51:00,57.9,35.0,27.14,ESE,105,0.0,0.0,42,0.00,,---,0.00,VWS V13.01,2013-10-13 11:51:00,
2013-10-13 04:56:00,57.9,35.0,27.14,ESE,105,0.0,0.0,42,0.00,,---,0.00,VWS V13.01,2013-10-13 11:56:00,
2013-10-13 05:01:00,57.7,34.8,27.14,ESE,105,0.0,0.0,42,0.00,,---,0.00,VWS V13.01,2013-10-13 12:01:00,
2013-10-13 05:06:00,57.7,34.8,27.14,ESE,105,0.0,0.0,42,0.00,,---,0.00,VWS V13.01,2013-10-13 12:06:00,
2013-10-13 05:11:00,57.7,34.8,27.14,ESE,105,0.0,0.0,42,0.00,,---,0.00,VWS V13.01,2013-10-13 12:11:00,
2013-10-13 05:16:00,57.6,34.7,27.14,ESE,105,0.0,0.0,42,0.00,,---,0.00,VWS V13.01,2013-10-13 12:16:00,
2013-10-13 05:21:00,57.6,34.7,27.17,ESE,105,0.0,0.0,42,0.00,,---,0.00,VWS V13.01,2013-10-13 12:21:00,
2013-10-13 05:26:00,57.4,34.5,27.17,ESE,105,0.0,0.0,42,0.00,,---,0.00,VWS V13.01,2013-10-13 12:26:00,
2013-10-13 05:31:00,57.2,34.9,27.17,ESE,105,0.0,0.0,43,0.00,,---,0.00,VWS V13.01,2013-10-13 12:31:00,
2013-10-13 05:36:00,57.2,34.9,27.17,ESE,105,0.0,0.0,43,0.00,,---,0.00,VWS V13.01,2013-10-13 12:36:00,
2013-10-13 05:42:00,57.2,35.5,27.17,ESE,105,0.0,0.0,44,0.00,,---,0.00,VWS V13.01,2013-10-13 12:42:00,
2013-10-13 05:47:00,57.2,35.5,27.17,ESE,105,0.0,0.0,44,0.00,,---,0.00,VWS V13.01,2013-10-13 12:47:00,
2013-10-13 05:52:00,57.2,35.5,27.17,ESE,105,0.0,0.0,44,0.00,,---,0.00,VWS V13.01,2013-10-13 12:52:00,
2013-10-13 05:57:00,57.2,36.1,27.17,ESE,105,0.0,0.0,45,0.00,,---,0.00,VWS V13.01,2013-10-13 12:57:00,
2013-10-13 06:03:00,57.2,36.1,27.17,ESE,105,0.0,0.0,45,0.00,,---,0.00,VWS V13.01,2013-10-13 13:03:00,
2013-10-13 06:08:00,57.4,36.2,27.17,ESE,105,0.0,0.0,45,0.00,,---,0.00,VWS V13.01,2013-10-13 13:08:00,
2013-10-13 06:13:00,57.6,36.4,27.17,ESE,105,0.0,0.0,45,0.00,,---,0.00,VWS V13.01,2013-10-13 13:13:00,
2013-10-13 06:18:00,57.4,36.2,27.17,ESE,105,0.0,0.0,45,0.00,,---,0.00,VWS V13.01,2013-10-13 13:18:00,
2013-10-13 06:24:00,57.4,36.2,27.17,ESE,105,0.0,0.0,45,0.00,,---,0.00,VWS V13.01,2013-10-13 13:24:00,
2013-10-13 06:29:00,57.4,36.8,27.17,ESE,105,0.0,2.7,46,0.00,,---,0.00,VWS V13.01,2013-10-13 13:29:00,
2013-10-13 06:34:00,57.2,36.6,27.17,ESE,105,0.0,0.0,46,0.00,,---,0.00,VWS V13.01,2013-10-13 13:34:00,
2013-10-13 06:40:00,57.4,36.8,27.17,ESE,105,0.0,0.0,46,0.00,,---,0.00,VWS V13.01,2013-10-13 13:40:00,
2013-10-13 06:45:00,57.9,37.3,27.17,ESE,106,0.0,0.0,46,0.00,,---,0.00,VWS V13.01,2013-10-13 13:45:00,
2013-10-13 06:50:00,58.6,37.9,27.17,ESE,111,0.0,0.0,46,0.00,,---,0.00,VWS V13.01,2013-10-13 13:50:00,
2013-10-13 06:55:00,59.2,38.4,27.17,SE,128,0.0,3.6,46,0.00,,---,0.00,VWS V13.01,2013-10-13 13:55:00,
2013-10-13 07:00:00,59.5,38.8,27.17,SE,128,0.0,0.0,46,0.00,,---,0.00,VWS V13.01,2013-10-13 14:00:00,
2013-10-13 07:05:00,59.7,38.9,27.17,SE,137,3.6,3.6,46,0.00,,---,0.00,VWS V13.01,2013-10-13 14:05:00,
2013-10-13 07:11:00,60.3,39.4,27.17,SSE,165,2.7,4.9,46,0.00,,---,0.00,VWS V13.01,2013-10-13 14:11:00,
2013-10-13 07:16:00,60.8,39.3,27.17,SSE,165,3.1,3.1,45,0.00,,---,0.00,VWS V13.01,2013-10-13 14:16:00,
2013-10-13 07:21:00,61.3,39.8,27.17,SSE,157,0.0,3.6,45,0.00,,---,0.00,VWS V13.01,2013-10-13 14:21:00,
2013-10-13 07:26:00,61.9,40.3,27.17,SE,146,3.6,3.6,45,0.00,,---,0.00,VWS V13.01,2013-10-13 14:26:00,
2013-10-13 07:31:00,62.4,40.8,27.17,SE,146,0.0,0.0,45,0.00,,---,0.00,VWS V13.01,2013-10-13 14:31:00,
2013-10-13 07:37:00,63.1,41.5,27.20,SE,139,0.0,0.0,45,0.00,,---,0.00,VWS V13.01,2013-10-13 14:37:00,
2013-10-13 07:42:00,63.7,42.0,27.20,SE,129,0.0,0.0,45,0.00,,---,0.00,VWS V13.01,2013-10-13 14:42:00,
2013-10-13 07:48:00,64.2,41.9,27.20,SE,129,0.0,0.0,44,0.00,,---,0.00,VWS V13.01,2013-10-13 14:48:00,
2013-10-13 07:53:00,64.8,42.4,27.20,SE,129,0.0,0.0,44,0.00,,---,0.00,VWS V13.01,2013-10-13 14:53:00,
2013-10-13 07:58:00,65.3,42.8,27.20,SE,129,0.0,0.0,44,0.00,,---,0.00,VWS V13.01,2013-10-13 14:58:00,
2013-10-13 08:03:00,66.0,43.5,27.20,SE,129,0.0,0.0,44,0.00,,---,0.00,VWS V13.01,2013-10-13 15:03:00,
2013-10-13 08:08:00,66.6,43.4,27.20,SE,129,0.0,0.0,43,0.00,,---,0.00,VWS V13.01,2013-10-13 15:08:00,
2013-10-13 08:13:00,67.5,44.2,27.20,SE,131,0.0,5.4,43,0.00,,---,0.00,VWS V13.01,2013-10-13 15:13:00,
2013-10-13 08:18:00,68.2,44.2,27.20,ESE,107,5.8,5.8,42,0.00,,---,0.00,VWS V13.01,2013-10-13 15:18:00,
2013-10-13 08:24:00,68.7,44.7,27.20,ESE,122,3.6,6.3,42,0.00,,---,0.00,VWS V13.01,2013-10-13 15:24:00,
2013-10-13 08:29:00,69.3,45.2,27.20,ESE,114,2.2,5.4,42,0.00,,---,0.00,VWS V13.01,2013-10-13 15:29:00,
2013-10-13 08:34:00,69.8,45.1,27.20,ESE,112,0.0,0.0,41,0.00,,---,0.00,VWS V13.01,2013-10-13 15:34:00,
2013-10-13 08:39:00,70.3,44.9,27.20,ESE,112,0.0,0.0,40,0.00,,---,0.00,VWS V13.01,2013-10-13 15:39:00,
2013-10-13 08:44:00,70.7,45.2,27.20,ESE,113,0.0,0.0,40,0.00,,---,0.00,VWS V13.01,2013-10-13 15:44:00,
2013-10-13 08:49:00,71.1,44.9,27.20,ESE,112,0.0,0.0,39,0.00,,---,0.00,VWS V13.01,2013-10-13 15:49:00,
2013-10-13 08:55:00,71.6,44.7,27.20,ESE,113,0.0,0.0,38,0.00,,---,0.00,VWS V13.01,2013-10-13 15:55:00,
2013-10-13 09:00:00,72.0,45.0,27.20,SE,129,3.1,5.4,38,0.00,,---,0.00,VWS V13.01,2013-10-13 16:00:00,
2013-10-13 09:05:00,72.3,44.6,27.20,SE,146,0.0,2.2,37,0.00,,---,0.00,VWS V13.01,2013-10-13 16:05:00,
2013-10-13 09:10:00,72.7,44.9,27.20,SSE,147,0.0,0.0,37,0.00,,---,0.00,VWS V13.01,2013-10-13 16:10:00,
2013-10-13 09:16:00,73.0,45.2,27.20,WNW,297,0.0,3.1,37,0.00,,---,0.00,VWS V13.01,2013-10-13 16:16:00,
2013-10-13 09:21:00,73.4,44.8,27.20,WNW,294,3.6,3.6,36,0.00,,---,0.00,VWS V13.01,2013-10-13 16:21:00,
2013-10-13 09:26:00,73.8,45.2,27.20,WNW,290,0.0,0.0,36,0.00,,---,0.00,VWS V13.01,2013-10-13 16:26:00,
2013-10-13 09:31:00,74.1,45.5,27.20,WNW,291,0.0,4.0,36,0.00,,---,0.00,VWS V13.01,2013-10-13 16:31:00,
2013-10-13 09:36:00,74.5,45.8,27.20,WNW,291,0.0,0.0,36,0.00,,---,0.00,VWS V13.01,2013-10-13 16:36:00,
2013-10-13 09:41:00,74.7,45.2,27.20,WNW,297,0.0,0.0,35,0.00,,---,0.00,VWS V13.01,2013-10-13 16:41:00,
2013-10-13 09:47:00,75.0,45.5,27.20,WNW,295,0.0,0.0,35,0.00,,---,0.00,VWS V13.01,2013-10-13 16:47:00,
2013-10-13 09:52:00,75.4,45.9,27.20,WNW,292,0.0,0.0,35,0.00,,---,0.00,VWS V13.01,2013-10-13 16:52:00,
2013-10-13 09:57:00,75.4,45.9,27.20,WNW,293,0.0,0.0,35,0.00,,---,0.00,VWS V13.01,2013-10-13 16:57:00,
2013-10-13 10:02:00,75.9,46.3,27.20,WNW,288,0.0,3.6,35,0.00,,---,0.00,VWS V13.01,2013-10-13 17:02:00,
2013-10-13 10:07:00,76.3,46.7,27.20,WNW,288,0.0,0.0,35,0.00,,---,0.00,VWS V13.01,2013-10-13 17:07:00,
2013-10-13 10:12:00,76.6,47.0,27.20,WSW,253,4.0,4.0,35,0.00,,---,0.00,VWS V13.01,2013-10-13 17:12:00,
2013-10-13 10:17:00,76.8,47.1,27.20,WSW,252,0.0,0.0,35,0.00,,---,0.00,VWS V13.01,2013-10-13 17:17:00,
2013-10-13 10:23:00,77.5,47.8,27.20,NE,49,0.0,3.1,35,0.00,,---,0.00,VWS V13.01,2013-10-13 17:23:00,
2013-10-13 10:28:00,77.9,47.3,27.20,South,179,0.0,3.6,34,0.00,,---,0.00,VWS V13.01,2013-10-13 17:28:00,
2013-10-13 10:34:00,78.6,47.9,27.20,SSE,153,3.1,5.4,34,0.00,,---,0.00,VWS V13.01,2013-10-13 17:34:00,
2013-10-13 10:39:00,78.8,47.3,27.20,SSW,208,2.2,6.3,33,0.00,,---,0.00,VWS V13.01,2013-10-13 17:39:00,
2013-10-13 10:44:00,79.0,47.5,27.20,SSE,164,0.0,0.0,33,0.00,,---,0.00,VWS V13.01,2013-10-13 17:44:00,
2013-10-13 10:49:00,79.2,47.6,27.20,SE,131,0.0,3.6,33,0.00,,---,0.00,VWS V13.01,2013-10-13 17:49:00,
2013-10-13 10:54:00,79.7,48.1,27.20,WSW,248,5.8,5.8,33,0.00,,---,0.00,VWS V13.01,2013-10-13 17:54:00,
2013-10-13 10:59:00,80.2,48.5,27.20,South,183,4.0,8.1,33,0.00,,---,0.00,VWS V13.01,2013-10-13 17:59:00,
2013-10-13 11:04:00,81.0,47.5,27.20,SE,125,8.1,13.2,31,0.00,,---,0.00,VWS V13.01,2013-10-13 18:04:00,
2013-10-13 11:10:00,81.5,48.0,27.20,South,183,7.6,8.7,31,0.00,,---,0.00,VWS V13.01,2013-10-13 18:10:00,
2013-10-13 11:16:00,82.0,48.5,27.20,ESE,105,3.1,8.7,31,0.00,,---,0.00,VWS V13.01,2013-10-13 18:16:00,
2013-10-13 11:21:00,82.4,48.8,27.17,South,189,6.3,10.5,31,0.00,,---,0.00,VWS V13.01,2013-10-13 18:21:00,
2013-10-13 11:26:00,82.6,48.9,27.17,SSW,196,3.1,5.4,31,0.00,,---,0.00,VWS V13.01,2013-10-13 18:26:00,
2013-10-13 11:31:00,82.6,48.0,27.17,SW,233,4.0,5.8,30,0.00,,---,0.00,VWS V13.01,2013-10-13 18:31:00,
2013-10-13 11:36:00,82.8,48.2,27.17,WNW,298,5.4,5.4,30,0.00,,---,0.00,VWS V13.01,2013-10-13 18:36:00,
2013-10-13 11:41:00,83.1,48.5,27.17,SW,219,5.4,6.3,30,0.00,,---,0.00,VWS V13.01,2013-10-13 18:41:00,
2013-10-13 11:47:00,83.7,49.0,27.17,SW,216,8.3,10.1,30,0.00,,---,0.00,VWS V13.01,2013-10-13 18:47:00,
2013-10-13 11:52:00,83.7,49.0,27.17,South,187,0.0,5.4,30,0.00,,---,0.00,VWS V13.01,2013-10-13 18:52:00,
2013-10-13 11:57:00,84.0,48.4,27.17,SSW,212,7.6,8.1,29,0.00,,---,0.00,VWS V13.01,2013-10-13 18:57:00,
2013-10-13 12:02:00,84.2,48.5,27.17,SSW,197,3.6,7.6,29,0.00,,---,0.00,VWS V13.01,2013-10-13 19:02:00,
2013-10-13 12:08:00,84.7,49.0,27.17,SE,129,2.7,6.3,29,0.00,,---,0.00,VWS V13.01,2013-10-13 19:08:00,
2013-10-13 12:13:00,84.9,48.2,27.17,West,271,5.4,8.3,28,0.00,,---,0.00,VWS V13.01,2013-10-13 19:13:00,
2013-10-13 12:18:00,84.4,47.8,27.17,SW,229,3.6,4.9,28,0.00,,---,0.00,VWS V13.01,2013-10-13 19:18:00,
2013-10-13 12:24:00,85.1,48.4,27.14,South,180,5.4,8.3,28,0.00,,---,0.00,VWS V13.01,2013-10-13 19:24:00,
2013-10-13 12:29:00,85.3,47.5,27.14,West,268,6.3,7.6,27,0.00,,---,0.00,VWS V13.01,2013-10-13 19:29:00,
2013-10-13 12:34:00,85.5,45.7,27.14,SSW,208,6.3,7.6,25,0.00,,---,0.00,VWS V13.01,2013-10-13 19:34:00,
2013-10-13 12:39:00,85.8,46.0,27.14,SSW,195,3.1,11.0,25,0.00,,---,0.00,VWS V13.01,2013-10-13 19:39:00,
2013-10-13 12:44:00,86.4,45.3,27.14,South,169,5.8,8.1,24,0.00,,---,0.00,VWS V13.01,2013-10-13 19:44:00,
2013-10-13 12:49:00,86.4,44.2,27.14,SSE,164,0.0,5.8,23,0.00,,---,0.00,VWS V13.01,2013-10-13 19:49:00,
2013-10-13 12:55:00,86.7,43.4,27.14,SSW,196,6.3,8.7,22,0.00,,---,0.00,VWS V13.01,2013-10-13 19:55:00,
2013-10-13 13:00:00,86.9,43.5,27.14,SW,223,4.0,8.7,22,0.00,,---,0.00,VWS V13.01,2013-10-13 20:00:00,
2013-10-13 13:05:00,87.1,43.7,27.11,South,171,5.8,10.1,22,0.00,,---,0.00,VWS V13.01,2013-10-13 20:05:00,
2013-10-13 13:10:00,87.3,42.6,27.11,SSW,200,5.8,8.1,21,0.00,,---,0.00,VWS V13.01,2013-10-13 20:10:00,
2013-10-13 13:16:00,87.6,42.9,27.11,SSW,213,6.3,8.7,21,0.00,,---,0.00,VWS V13.01,2013-10-13 20:16:00,
2013-10-13 13:21:00,87.4,41.5,27.11,WSW,243,4.9,9.6,20,0.00,,---,0.00,VWS V13.01,2013-10-13 20:21:00,
2013-10-13 13:26:00,87.3,41.3,27.11,SSW,205,4.0,8.7,20,0.00,,---,0.00,VWS V13.01,2013-10-13 20:26:00,
2013-10-13 13:31:00,87.4,41.5,27.11,SW,214,4.0,11.4,20,0.00,,---,0.00,VWS V13.01,2013-10-13 20:31:00,
2013-10-13 13:36:00,87.6,41.6,27.11,South,185,8.7,8.7,20,0.00,,---,0.00,VWS V13.01,2013-10-13 20:36:00,
2013-10-13 13:42:00,87.6,40.3,27.11,South,190,5.8,11.0,19,0.00,,---,0.00,VWS V13.01,2013-10-13 20:42:00,
2013-10-13 13:47:00,87.8,40.5,27.11,SW,226,8.1,13.2,19,0.00,,---,0.00,VWS V13.01,2013-10-13 20:47:00,
2013-10-13 13:52:00,87.8,39.1,27.11,South,180,5.4,13.6,18,0.00,,---,0.00,VWS V13.01,2013-10-13 20:52:00,
2013-10-13 13:57:00,87.8,39.1,27.11,SSW,212,5.8,10.5,18,0.00,,---,0.00,VWS V13.01,2013-10-13 20:57:00,
2013-10-13 14:03:00,88.0,39.2,27.11,SSW,205,8.1,13.2,18,0.00,,---,0.00,VWS V13.01,2013-10-13 21:03:00,
2013-10-13 14:08:00,87.6,38.9,27.11,SSW,205,13.2,19.2,18,0.00,,---,0.00,VWS V13.01,2013-10-13 21:08:00,
2013-10-13 14:13:00,87.6,38.9,27.11,South,189,4.0,15.0,18,0.00,,---,0.00,VWS V13.01,2013-10-13 21:13:00,
2013-10-13 14:18:00,87.8,39.1,27.11,South,179,10.5,11.0,18,0.00,,---,0.00,VWS V13.01,2013-10-13 21:18:00,
2013-10-13 14:23:00,87.8,39.1,27.11,SSW,208,4.9,8.3,18,0.00,,---,0.00,VWS V13.01,2013-10-13 21:23:00,
2013-10-13 14:29:00,87.8,39.1,27.11,South,174,11.0,15.0,18,0.00,,---,0.00,VWS V13.01,2013-10-13 21:29:00,
2013-10-13 14:34:00,87.8,39.1,27.11,South,182,5.4,15.0,18,0.00,,---,0.00,VWS V13.01,2013-10-13 21:34:00,
2013-10-13 14:39:00,87.6,38.9,27.11,SSW,196,5.4,12.8,18,0.00,,---,0.00,VWS V13.01,2013-10-13 21:39:00,
2013-10-13 14:44:00,87.6,38.9,27.11,South,189,6.3,8.7,18,0.00,,---,0.00,VWS V13.01,2013-10-13 21:44:00,
2013-10-13 14:49:00,87.6,30.8,27.11,South,185,5.8,11.4,13,0.00,,---,0.00,VWS V13.01,2013-10-13 21:49:00,
2013-10-13 14:54:00,87.6,38.9,27.11,SW,232,5.4,13.2,18,0.00,,---,0.00,VWS V13.01,2013-10-13 21:54:00,
2013-10-13 15:00:00,87.4,38.8,27.11,SSW,198,8.7,11.0,18,0.00,,---,0.00,VWS V13.01,2013-10-13 22:00:00,
2013-10-13 15:05:00,87.4,38.8,27.11,South,173,5.4,13.6,18,0.00,,---,0.00,VWS V13.01,2013-10-13 22:05:00,
2013-10-13 15:10:00,87.6,38.9,27.11,South,182,7.6,11.0,18,0.00,,---,0.00,VWS V13.01,2013-10-13 22:10:00,
2013-10-13 15:15:00,87.6,38.9,27.11,SSE,160,13.2,13.2,18,0.00,,---,0.00,VWS V13.01,2013-10-13 22:15:00,
2013-10-13 15:21:00,87.4,38.8,27.11,SSW,212,13.2,13.2,18,0.00,,---,0.00,VWS V13.01,2013-10-13 22:21:00,
2013-10-13 15:26:00,87.4,38.8,27.11,South,176,11.0,14.1,18,0.00,,---,0.00,VWS V13.01,2013-10-13 22:26:00,
2013-10-13 15:31:00,87.1,38.5,27.11,SW,214,11.0,11.9,18,0.00,,---,0.00,VWS V13.01,2013-10-13 22:31:00,
2013-10-13 15:37:00,87.1,38.5,27.11,SE,134,8.1,12.8,18,0.00,,---,0.00,VWS V13.01,2013-10-13 22:37:00,
2013-10-13 15:42:00,86.9,38.3,27.11,South,179,7.6,15.0,18,0.00,,---,0.00,VWS V13.01,2013-10-13 22:42:00,
2013-10-13 15:47:00,86.9,38.3,27.11,SSW,199,10.5,12.8,18,0.00,,---,0.00,VWS V13.01,2013-10-13 22:47:00,
2013-10-13 15:53:00,86.7,38.2,27.11,South,177,3.6,8.7,18,0.00,,---,0.00,VWS V13.01,2013-10-13 22:53:00,
2013-10-13 15:58:00,86.7,38.2,27.11,South,190,11.0,11.0,18,0.00,,---,0.00,VWS V13.01,2013-10-13 22:58:00,
2013-10-13 16:03:00,86.5,38.0,27.11,South,169,8.1,13.2,18,0.00,,---,0.00,VWS V13.01,2013-10-13 23:03:00,
2013-10-13 16:08:00,86.4,37.9,27.11,SSW,192,8.7,12.8,18,0.00,,---,0.00,VWS V13.01,2013-10-13 23:08:00,
2013-10-13 16:13:00,86.2,37.8,27.11,SW,223,8.1,8.7,18,0.00,,---,0.00,VWS V13.01,2013-10-13 23:13:00,
2013-10-13 16:18:00,86.0,34.6,27.11,SSW,196,11.9,14.5,16,0.00,,---,0.00,VWS V13.01,2013-10-13 23:18:00,
2013-10-13 16:24:00,86.0,34.6,27.11,SW,221,6.3,8.3,16,0.00,,---,0.00,VWS V13.01,2013-10-13 23:24:00,
2013-10-13 16:29:00,85.8,37.5,27.11,SSW,210,8.7,10.1,18,0.00,,---,0.00,VWS V13.01,2013-10-13 23:29:00,
2013-10-13 16:34:00,85.6,37.3,27.11,South,183,5.8,8.3,18,0.00,,---,0.00,VWS V13.01,2013-10-13 23:34:00,
2013-10-13 16:39:00,85.6,34.3,27.11,SSW,198,10.1,10.1,16,0.00,,---,0.00,VWS V13.01,2013-10-13 23:39:00,
2013-10-13 16:45:00,85.5,34.2,27.11,SSW,199,8.7,8.7,16,0.00,,---,0.00,VWS V13.01,2013-10-13 23:45:00,
2013-10-13 16:50:00,85.3,28.9,27.11,South,191,6.3,8.3,13,0.00,,---,0.00,VWS V13.01,2013-10-13 23:50:00,
2013-10-13 16:55:00,85.1,28.8,27.11,SSW,209,8.7,14.1,13,0.00,,---,0.00,VWS V13.01,2013-10-13 23:55:00,
2013-10-13 17:00:00,84.7,28.5,27.11,SW,216,9.2,9.2,13,0.00,,---,0.00,VWS V13.01,2013-10-14 00:00:00,
2013-10-13 17:05:00,84.6,16.9,27.11,SSW,205,5.8,12.3,8,0.00,,---,0.00,VWS V13.01,2013-10-14 00:05:00,
2013-10-13 17:11:00,84.2,16.6,27.11,WSW,240,5.8,8.7,8,0.00,,---,0.00,VWS V13.01,2013-10-14 00:11:00,
2013-10-13 17:16:00,83.8,23.8,27.11,SW,228,10.5,11.0,11,0.00,,---,0.00,VWS V13.01,2013-10-14 00:16:00,
2013-10-13 17:21:00,83.5,32.6,27.11,SW,226,4.0,5.8,16,0.00,,---,0.00,VWS V13.01,2013-10-14 00:21:00,
2013-10-13 17:27:00,83.1,32.3,27.11,West,275,11.0,11.0,16,0.00,,---,0.00,VWS V13.01,2013-10-14 00:27:00,
2013-10-13 17:32:00,82.8,36.3,27.11,SSW,213,8.1,10.5,19,0.00,,---,0.00,VWS V13.01,2013-10-14 00:32:00,
2013-10-13 17:37:00,82.4,36.0,27.11,SW,226,4.0,7.2,19,0.00,,---,0.00,VWS V13.01,2013-10-14 00:37:00,
2013-10-13 17:43:00,81.9,35.6,27.11,SW,236,3.1,7.6,19,0.00,,---,0.00,VWS V13.01,2013-10-14 00:43:00,
2013-10-13 17:48:00,81.5,32.5,27.11,SW,225,8.1,10.5,17,0.00,,---,0.00,VWS V13.01,2013-10-14 00:48:00,
2013-10-13 17:53:00,81.1,32.2,27.11,West,274,4.5,12.8,17,0.00,,---,0.00,VWS V13.01,2013-10-14 00:53:00,
2013-10-13 17:58:00,80.8,34.7,27.11,SW,233,11.0,11.0,19,0.00,,---,0.00,VWS V13.01,2013-10-14 00:58:00,
2013-10-13 18:04:00,80.4,35.7,27.11,SW,217,2.7,7.6,20,0.00,,---,0.00,VWS V13.01,2013-10-14 01:04:00,
2013-10-13 18:09:00,80.1,35.4,27.11,WSW,237,5.8,5.8,20,0.00,,---,0.00,VWS V13.01,2013-10-14 01:09:00,
2013-10-13 18:14:00,79.9,36.5,27.11,SW,231,5.4,7.6,21,0.00,,---,0.00,VWS V13.01,2013-10-14 01:14:00,
2013-10-13 18:19:00,79.5,36.2,27.14,West,263,5.8,6.3,21,0.00,,---,0.00,VWS V13.01,2013-10-14 01:19:00,
2013-10-13 18:24:00,79.3,36.0,27.14,SW,223,5.4,5.8,21,0.00,,---,0.00,VWS V13.01,2013-10-14 01:24:00,
2013-10-13 18:29:00,79.0,35.8,27.14,WSW,252,3.1,8.3,21,0.00,,---,0.00,VWS V13.01,2013-10-14 01:29:00,
2013-10-13 18:35:00,78.8,36.8,27.14,WSW,244,2.7,5.8,22,0.00,,---,0.00,VWS V13.01,2013-10-14 01:35:00,
2013-10-13 18:40:00,78.4,36.5,27.14,WSW,238,0.0,0.0,22,0.00,,---,0.00,VWS V13.01,2013-10-14 01:40:00,
2013-10-13 18:46:00,78.1,36.2,27.14,WSW,250,0.0,4.9,22,0.00,,---,0.00,VWS V13.01,2013-10-14 01:46:00,
2013-10-13 18:51:00,77.9,37.2,27.14,SW,227,2.2,3.6,23,0.00,,---,0.00,VWS V13.01,2013-10-14 01:51:00,
2013-10-13 18:56:00,77.5,36.8,27.14,SW,228,0.0,0.0,23,0.00,,---,0.00,VWS V13.01,2013-10-14 01:56:00,
2013-10-13 19:01:00,77.2,36.5,27.14,SW,228,0.0,0.0,23,0.00,,---,0.00,VWS V13.01,2013-10-14 02:01:00,
2013-10-13 19:06:00,76.8,37.3,27.14,SW,228,0.0,0.0,24,0.00,,---,0.00,VWS V13.01,2013-10-14 02:06:00,
2013-10-13 19:11:00,76.5,37.0,27.14,SW,228,0.0,0.0,24,0.00,,---,0.00,VWS V13.01,2013-10-14 02:11:00,
2013-10-13 19:16:00,76.3,36.9,27.14,SW,228,0.0,0.0,24,0.00,,---,0.00,VWS V13.01,2013-10-14 02:16:00,
2013-10-13 19:21:00,75.7,37.5,27.14,SW,228,0.0,0.0,25,0.00,,---,0.00,VWS V13.01,2013-10-14 02:21:00,
2013-10-13 19:26:00,75.4,37.2,27.14,SW,228,0.0,0.0,25,0.00,,---,0.00,VWS V13.01,2013-10-14 02:26:00,
2013-10-13 19:32:00,75.0,37.8,27.14,SW,228,0.0,0.0,26,0.00,,---,0.00,VWS V13.01,2013-10-14 02:32:00,
2013-10-13 19:37:00,74.5,37.4,27.14,SW,228,0.0,0.0,26,0.00,,---,0.00,VWS V13.01,2013-10-14 02:37:00,
2013-10-13 19:42:00,74.1,38.0,27.14,SW,228,0.0,0.0,27,0.00,,---,0.00,VWS V13.01,2013-10-14 02:42:00,
2013-10-13 19:47:00,73.9,37.9,27.14,SW,228,0.0,0.0,27,0.00,,---,0.00,VWS V13.01,2013-10-14 02:47:00,
2013-10-13 19:53:00,73.8,38.7,27.17,SW,228,0.0,0.0,28,0.00,,---,0.00,VWS V13.01,2013-10-14 02:53:00,
2013-10-13 19:58:00,73.6,38.5,27.17,SW,228,0.0,0.0,28,0.00,,---,0.00,VWS V13.01,2013-10-14 02:58:00,
2013-10-13 20:03:00,73.4,39.2,27.17,SW,228,0.0,0.0,29,0.00,,---,0.00,VWS V13.01,2013-10-14 03:03:00,
2013-10-13 20:08:00,73.6,39.4,27.17,West,269,0.0,0.0,29,0.00,,---,0.00,VWS V13.01,2013-10-14 03:08:00,
2013-10-13 20:14:00,73.6,39.4,27.17,West,269,0.0,0.0,29,0.00,,---,0.00,VWS V13.01,2013-10-14 03:14:00,
2013-10-13 20:19:00,73.8,39.5,27.17,WSW,245,2.2,5.8,29,0.00,,---,0.00,VWS V13.01,2013-10-14 03:19:00,
2013-10-13 20:25:00,73.6,39.4,27.17,WSW,245,0.0,0.0,29,0.00,,---,0.00,VWS V13.01,2013-10-14 03:25:00,
2013-10-13 20:30:00,73.2,40.0,27.17,WSW,245,0.0,0.0,30,0.00,,---,0.00,VWS V13.01,2013-10-14 03:30:00,
2013-10-13 20:35:00,73.2,40.0,27.17,WSW,242,0.0,4.0,30,0.00,,---,0.00,VWS V13.01,2013-10-14 03:35:00,
2013-10-13 20:40:00,73.0,39.8,27.17,SSW,194,3.6,4.9,30,0.00,,---,0.00,VWS V13.01,2013-10-14 03:40:00,
2013-10-13 20:45:00,73.0,39.8,27.17,SSW,198,0.0,0.0,30,0.00,,---,0.00,VWS V13.01,2013-10-14 03:45:00,
2013-10-13 20:50:00,72.9,39.7,27.17,SSW,198,0.0,3.1,30,0.00,,---,0.00,VWS V13.01,2013-10-14 03:50:00,
2013-10-13 20:56:00,72.7,39.5,27.17,SSW,198,0.0,0.0,30,0.00,,---,0.00,VWS V13.01,2013-10-14 03:56:00,
2013-10-13 21:01:00,72.5,39.3,27.17,SSW,204,2.2,3.6,30,0.00,,---,0.00,VWS V13.01,2013-10-14 04:01:00,
2013-10-13 21:02:00,72.5,39.3,27.17,SSW,204,0.0,3.6,30,0.00,,---,0.00,VWS V13.01,2013-10-14 04:02:00,
2013-10-13 21:03:00,72.5,39.3,27.17,SSW,204,0.0,2.2,30,0.00,,---,0.00,VWS V13.01,2013-10-14 04:03:00,
2013-10-13 21:04:00,72.3,39.2,27.17,SSW,204,2.7,2.7,30,0.00,,---,0.00,VWS V13.01,2013-10-14 04:04:00,
2013-10-13 21:09:00,72.5,38.5,27.17,West,264,0.0,4.0,29,0.00,,---,0.00,VWS V13.01,2013-10-14 04:09:00,
2013-10-13 21:14:00,72.5,38.5,27.17,WNW,292,0.0,2.7,29,0.00,,---,0.00,VWS V13.01,2013-10-14 04:14:00,
2013-10-13 21:20:00,72.3,38.3,27.17,WNW,291,0.0,0.0,29,0.00,,---,0.00,VWS V13.01,2013-10-14 04:20:00,
2013-10-13 21:25:00,72.0,38.0,27.17,WNW,296,0.0,0.0,29,0.00,,---,0.00,VWS V13.01,2013-10-14 04:25:00,
2013-10-13 21:30:00,71.8,37.8,27.17,WNW,296,0.0,0.0,29,0.00,,---,0.00,VWS V13.01,2013-10-14 04:30:00,
2013-10-13 21:35:00,71.4,38.4,27.20,WNW,296,0.0,0.0,30,0.00,,---,0.00,VWS V13.01,2013-10-14 04:35:00,
2013-10-13 21:40:00,71.1,38.1,27.20,WNW,296,0.0,0.0,30,0.00,,---,0.00,VWS V13.01,2013-10-14 04:40:00,
2013-10-13 21:45:00,70.7,38.6,27.20,WNW,296,0.0,0.0,31,0.00,,---,0.00,VWS V13.01,2013-10-14 04:45:00,
2013-10-13 21:50:00,70.3,38.3,27.20,WNW,296,0.0,0.0,31,0.00,,---,0.00,VWS V13.01,2013-10-14 04:50:00,
2013-10-13 21:55:00,69.8,38.6,27.20,WNW,296,0.0,0.0,32,0.00,,---,0.00,VWS V13.01,2013-10-14 04:55:00,
2013-10-13 22:01:00,69.6,38.5,27.20,WNW,296,0.0,0.0,32,0.00,,---,0.00,VWS V13.01,2013-10-14 05:01:00,
2013-10-13 22:06:00,69.8,38.6,27.20,WNW,296,0.0,0.0,32,0.00,,---,0.00,VWS V13.01,2013-10-14 05:06:00,
2013-10-13 22:12:00,69.8,38.6,27.20,West,266,5.4,5.4,32,0.00,,---,0.00,VWS V13.01,2013-10-14 05:12:00,
2013-10-13 22:17:00,69.8,38.6,27.20,West,266,0.0,3.6,32,0.00,,---,0.00,VWS V13.01,2013-10-14 05:17:00,
2013-10-13 22:22:00,69.8,38.6,27.20,West,275,0.0,0.0,32,0.00,,---,0.00,VWS V13.01,2013-10-14 05:22:00,
2013-10-13 22:27:00,69.8,38.6,27.20,West,275,0.0,0.0,32,0.00,,---,0.00,VWS V13.01,2013-10-14 05:27:00,
2013-10-13 22:33:00,69.6,38.5,27.20,West,275,0.0,0.0,32,0.00,,---,0.00,VWS V13.01,2013-10-14 05:33:00,
2013-10-13 22:38:00,69.3,38.2,27.20,West,275,0.0,0.0,32,0.00,,---,0.00,VWS V13.01,2013-10-14 05:38:00,
2013-10-13 22:43:00,68.7,37.7,27.20,West,275,0.0,0.0,32,0.00,,---,0.00,VWS V13.01,2013-10-14 05:43:00,
2013-10-13 22:48:00,68.2,37.2,27.20,West,275,0.0,0.0,32,0.00,,---,0.00,VWS V13.01,2013-10-14 05:48:00,
2013-10-13 22:54:00,68.0,37.1,27.20,West,275,0.0,0.0,32,0.00,,---,0.00,VWS V13.01,2013-10-14 05:54:00,
2013-10-13 22:59:00,67.8,37.7,27.20,West,274,0.0,0.0,33,0.00,,---,0.00,VWS V13.01,2013-10-14 05:59:00,
2013-10-13 23:04:00,67.8,37.7,27.20,West,274,0.0,0.0,33,0.00,,---,0.00,VWS V13.01,2013-10-14 06:04:00,
2013-10-13 23:09:00,67.8,37.7,27.20,West,274,0.0,0.0,33,0.00,,---,0.00,VWS V13.01,2013-10-14 06:09:00,
2013-10-13 23:15:00,67.5,37.4,27.20,West,274,0.0,0.0,33,0.00,,---,0.00,VWS V13.01,2013-10-14 06:15:00,
2013-10-13 23:20:00,67.1,37.1,27.20,West,274,0.0,0.0,33,0.00,,---,0.00,VWS V13.01,2013-10-14 06:20:00,
2013-10-13 23:25:00,66.7,36.8,27.20,West,274,0.0,0.0,33,0.00,,---,0.00,VWS V13.01,2013-10-14 06:25:00,
2013-10-13 23:30:00,66.4,36.4,27.20,West,274,0.0,0.0,33,0.00,,---,0.00,VWS V13.01,2013-10-14 06:30:00,
2013-10-13 23:36:00,66.0,36.9,27.20,West,274,0.0,0.0,34,0.00,,---,0.00,VWS V13.01,2013-10-14 06:36:00,
2013-10-13 23:41:00,65.8,36.7,27.20,West,274,0.0,0.0,34,0.00,,---,0.00,VWS V13.01,2013-10-14 06:41:00,
2013-10-13 23:46:00,65.7,36.6,27.20,West,273,0.0,0.0,34,0.00,,---,0.00,VWS V13.01,2013-10-14 06:46:00,
2013-10-13 23:51:00,65.8,36.7,27.20,ESE,118,0.0,0.0,34,0.00,,---,0.00,VWS V13.01,2013-10-14 06:51:00,
2013-10-13 23:56:00,65.8,36.7,27.20,ESE,117,0.0,0.0,34,0.00,,---,0.00,VWS V13.01,2013-10-14 06:56:00,